When you browse on this site, cookies collect data to enhance your experience and personalize the content and advertising you see.
Visit our Privacy Policy to learn more. By continuing to use the site, you agree to this use of cookies and data.
  • In United Kingdom
  • List of Countries
  • For 7 days
  • Water Temperature
  • Weather Map
  • Weather Widgets
  • user-avatar
    Login

    Hourly Weather Knighton

    Today, 6 June, Saturday

    Time Temperature Precipitation Wind Pressure Humidity
    00:00 +1°C° 0 mm 5 mps 720 mmHg 87%
    01:00 +1°C° 0 mm 5 mps 720 mmHg 86%
    02:00 +1°C° 0 mm 6 mps 719 mmHg 85%
    03:00 +2°C° 0 mm 6 mps 719 mmHg 85%
    04:00 +2°C° 0.1 mm 7 mps 719 mmHg 85%
    05:00 +2°C° 0.1 mm 8 mps 718 mmHg 85%
    06:00 +2°C° 0.1 mm 9 mps 718 mmHg 86%
    07:00 +4°C° 0.7 mm 8 mps 718 mmHg 89%
    08:00 +5°C° 0.7 mm 8 mps 718 mmHg 92%
    09:00 +5°C° 0.7 mm 8 mps 718 mmHg 95%
    10:00 +6°C° 0.8 mm 8 mps 718 mmHg 93%
    11:00 +8°C° 0.8 mm 7 mps 718 mmHg 91%
    12:00 +9°C° 0.8 mm 7 mps 718 mmHg 89%
    13:00 +10°C° 0.2 mm 7 mps 719 mmHg 80%
    14:00 +11°C° 0.2 mm 7 mps 719 mmHg 72%
    15:00 +12°C° 0.2 mm 7 mps 720 mmHg 64%
    16:00 +12°C° 0.2 mm 7 mps 720 mmHg 69%
    17:00 +11°C° 0.2 mm 6 mps 720 mmHg 74%
    18:00 +10°C° 0.2 mm 6 mps 721 mmHg 79%
    19:00 +9°C° 0 mm 5 mps 721 mmHg 84%
    20:00 +8°C° 0 mm 4 mps 722 mmHg 88%
    21:00 +6°C° 0 mm 4 mps 723 mmHg 93%
    22:00 +7°C° 0 mm 3 mps 723 mmHg 94%
    23:00 +5°C° 0 mm 3 mps 723 mmHg 95%

    Tomorrow, 7 June, Sunday

    Time Temperature Precipitation Wind Pressure Humidity
    00:00 +5°C° 0 mm 3 mps 723 mmHg 96%
    01:00 +5°C° 0 mm 3 mps 723 mmHg 96%
    02:00 +6°C° 0 mm 2 mps 723 mmHg 96%
    03:00 +6°C° 0 mm 2 mps 724 mmHg 96%
    04:00 +6°C° 0 mm 2 mps 724 mmHg 95%
    05:00 +7°C° 0 mm 2 mps 724 mmHg 94%
    06:00 +8°C° 0 mm 2 mps 725 mmHg 93%
    07:00 +9°C° 0 mm 3 mps 725 mmHg 88%
    08:00 +11°C° 0 mm 3 mps 726 mmHg 84%
    09:00 +12°C° 0 mm 4 mps 726 mmHg 79%
    10:00 +12°C° 0.4 mm 4 mps 727 mmHg 81%
    11:00 +12°C° 0.4 mm 5 mps 727 mmHg 83%
    12:00 +12°C° 0.4 mm 5 mps 727 mmHg 85%
    13:00 +12°C° 0.2 mm 5 mps 728 mmHg 82%
    14:00 +13°C° 0.2 mm 5 mps 728 mmHg 79%
    15:00 +13°C° 0.2 mm 5 mps 728 mmHg 76%
    16:00 +13°C° 0.2 mm 5 mps 728 mmHg 78%
    17:00 +12°C° 0.2 mm 5 mps 729 mmHg 81%
    18:00 +10°C° 0.2 mm 5 mps 729 mmHg 84%
    19:00 +10°C° 0 mm 4 mps 730 mmHg 86%
    20:00 +9°C° 0 mm 3 mps 730 mmHg 88%
    21:00 +8°C° 0 mm 3 mps 731 mmHg 90%
    22:00 +7°C° 0 mm 2 mps 731 mmHg 91%
    23:00 +7°C° 0 mm 2 mps 731 mmHg 92%

    Day after tomorrow, 8 June, Monday

    Time Temperature Precipitation Wind Pressure Humidity
    00:00 +6°C° 0 mm 2 mps 732 mmHg 94%
    01:00 +5°C° 0 mm 2 mps 732 mmHg 94%
    02:00 +5°C° 0 mm 2 mps 732 mmHg 94%
    03:00 +5°C° 0 mm 1 mps 732 mmHg 95%
    04:00 +6°C° 0 mm 1 mps 732 mmHg 93%
    05:00 +7°C° 0 mm 1 mps 733 mmHg 92%
    06:00 +8°C° 0 mm 1 mps 733 mmHg 91%
    07:00 +8°C° 0 mm 1 mps 733 mmHg 87%
    08:00 +8°C° 0 mm 2 mps 734 mmHg 83%
    09:00 +9°C° 0 mm 2 mps 734 mmHg 79%
    10:00 +10°C° 0 mm 2 mps 734 mmHg 75%
    11:00 +12°C° 0 mm 2 mps 734 mmHg 72%
    12:00 +13°C° 0 mm 2 mps 734 mmHg 68%
    13:00 +13°C° 0.1 mm 2 mps 735 mmHg 69%
    14:00 +14°C° 0.1 mm 2 mps 735 mmHg 69%
    15:00 +14°C° 0.1 mm 2 mps 735 mmHg 70%
    16:00 +14°C° 0.1 mm 2 mps 735 mmHg 72%
    17:00 +13°C° 0.1 mm 2 mps 735 mmHg 74%
    18:00 +13°C° 0.1 mm 2 mps 735 mmHg 76%
    19:00 +12°C° 0 mm 2 mps 735 mmHg 80%
    20:00 +9°C° 0 mm 2 mps 735 mmHg 84%
    21:00 +7°C° 0 mm 2 mps 735 mmHg 88%
    22:00 +8°C° 0 mm 1 mps 735 mmHg 89%
    23:00 +7°C° 0 mm 1 mps 735 mmHg 89%

    9 June, Tuesday

    Time Temperature Precipitation Wind Pressure Humidity
    00:00 +6°C° 0 mm 1 mps 735 mmHg 90%
    01:00 +4°C° 0 mm 0 mps 735 mmHg 90%
    02:00 +4°C° 0 mm 0 mps 735 mmHg 91%
    03:00 +3°C° 0 mm 0 mps 735 mmHg 91%
    04:00 +4°C° 0 mm 0 mps 735 mmHg 90%
    05:00 +6°C° 0 mm 0 mps 736 mmHg 89%
    06:00 +7°C° 0 mm 0 mps 736 mmHg 88%
    07:00 +9°C° 0 mm 1 mps 736 mmHg 83%
    08:00 +10°C° 0 mm 1 mps 736 mmHg 79%
    09:00 +12°C° 0 mm 1 mps 736 mmHg 74%
    10:00 +12°C° 0.1 mm 1 mps 736 mmHg 73%
    11:00 +13°C° 0.1 mm 1 mps 736 mmHg 71%
    12:00 +14°C° 0.1 mm 1 mps 736 mmHg 69%
    13:00 +14°C° 0.1 mm 1 mps 736 mmHg 69%
    14:00 +14°C° 0.1 mm 1 mps 736 mmHg 69%
    15:00 +14°C° 0.1 mm 1 mps 736 mmHg 70%
    16:00 +14°C° 0.1 mm 1 mps 736 mmHg 74%
    17:00 +14°C° 0.1 mm 1 mps 736 mmHg 78%
    18:00 +13°C° 0.1 mm 1 mps 736 mmHg 82%
    19:00 +12°C° 0.1 mm 1 mps 736 mmHg 83%
    20:00 +11°C° 0.1 mm 0 mps 736 mmHg 85%
    21:00 +10°C° 0.1 mm 0 mps 737 mmHg 86%
    22:00 +9°C° 0 mm 0 mps 737 mmHg 87%
    23:00 +9°C° 0 mm 0 mps 737 mmHg 88%

    10 June, Wednesday

    Time Temperature Precipitation Wind Pressure Humidity
    00:00 +8°C° 0 mm 0 mps 737 mmHg 89%
    01:00 +8°C° 0 mm 0 mps 737 mmHg 89%
    02:00 +7°C° 0 mm 0 mps 737 mmHg 90%
    03:00 +7°C° 0 mm 0 mps 737 mmHg 91%
    04:00 +7°C° 0 mm 0 mps 737 mmHg 90%
    05:00 +8°C° 0 mm 0 mps 737 mmHg 89%
    06:00 +9°C° 0 mm 0 mps 738 mmHg 88%
    07:00 +11°C° 0 mm 0 mps 738 mmHg 83%
    08:00 +13°C° 0 mm 1 mps 738 mmHg 78%
    09:00 +15°C° 0 mm 1 mps 738 mmHg 73%
    10:00 +15°C° 0 mm 1 mps 738 mmHg 70%
    11:00 +16°C° 0 mm 1 mps 738 mmHg 67%
    12:00 +18°C° 0 mm 1 mps 738 mmHg 64%
    13:00 +18°C° 0.1 mm 1 mps 738 mmHg 65%
    14:00 +17°C° 0.1 mm 2 mps 738 mmHg 65%
    15:00 +17°C° 0.1 mm 2 mps 738 mmHg 65%
    16:00 +17°C° 0.1 mm 2 mps 738 mmHg 69%
    17:00 +17°C° 0.1 mm 2 mps 738 mmHg 73%
    18:00 +16°C° 0.1 mm 3 mps 738 mmHg 76%
    19:00 +14°C° 0 mm 2 mps 738 mmHg 80%
    20:00 +13°C° 0 mm 1 mps 738 mmHg 84%
    21:00 +11°C° 0 mm 1 mps 738 mmHg 88%
    22:00 +10°C° 0 mm 1 mps 738 mmHg 88%
    23:00 +10°C° 0 mm 1 mps 738 mmHg 89%

    11 June, Thursday

    Time Temperature Precipitation Wind Pressure Humidity
    00:00 +9°C° 0 mm 1 mps 738 mmHg 89%
    01:00 +9°C° 0 mm 1 mps 738 mmHg 90%
    02:00 +8°C° 0 mm 1 mps 737 mmHg 90%
    03:00 +8°C° 0 mm 1 mps 737 mmHg 90%
    04:00 +9°C° 0 mm 1 mps 737 mmHg 88%
    05:00 +10°C° 0 mm 1 mps 737 mmHg 86%
    06:00 +11°C° 0 mm 1 mps 737 mmHg 84%
    07:00 +13°C° 0 mm 1 mps 737 mmHg 80%
    08:00 +15°C° 0 mm 1 mps 737 mmHg 76%
    09:00 +16°C° 0 mm 1 mps 737 mmHg 72%
    10:00 +18°C° 0 mm 1 mps 737 mmHg 70%
    11:00 +19°C° 0 mm 1 mps 737 mmHg 69%
    12:00 +20°C° 0 mm 1 mps 737 mmHg 68%
    13:00 +20°C° 0 mm 1 mps 736 mmHg 69%
    14:00 +19°C° 0 mm 2 mps 736 mmHg 71%
    15:00 +19°C° 0 mm 2 mps 736 mmHg 73%
    16:00 +19°C° 0.1 mm 2 mps 735 mmHg 75%
    17:00 +19°C° 0.1 mm 2 mps 735 mmHg 77%
    18:00 +18°C° 0.1 mm 2 mps 735 mmHg 80%
    19:00 +17°C° 0 mm 2 mps 735 mmHg 84%
    20:00 +15°C° 0 mm 1 mps 735 mmHg 88%
    21:00 +13°C° 0 mm 1 mps 735 mmHg 92%
    22:00 +13°C° 0 mm 1 mps 735 mmHg 92%
    23:00 +12°C° 0 mm 1 mps 734 mmHg 92%
    Show more